www.pogodaiklimat.ru

Погода и климат >> Архив погоды >> Россия >> Калмыкия >> Юста


ПОГОДА в Юсте

  • Прогноз погоды в Юсте
  • Монитор погоды в Юсте
  • Климат города

АРХИВ ПОГОДЫ в Юсте

Время (UTC), дата Ветер
(напр.,м/с)
 
Видим.   Явления Облачность Т
(С)
Тd
(С)
f
(%)
Тe
(С)
Тes
(С)
Комфортность P
(гПа)
Po
(гПа)
Тmin
(С)
Tmax
(С)
R
(мм)
R24
(мм)
S
(см)
00 14.01 СВ 3 10 км ясно -14.2 -16.1 85 -21 -21 1038.4 1038.0
03 14.01 СВ 2 10 км ясно -15.8 -17.8 85 -21 -21 1038.5 1038.1 -15.8 3
06 14.01 СВ 5 20 км ясно -16.0 -18.3 82 -25 -25 1038.7 1038.3 -16.6
09 14.01 СВ 3 20 км ясно -12.1 -16.0 73 -18 -16 1038.1 1037.7
12 14.01 СВ 5 20 км ясно -9.8 -15.4 64 -17 -17 1037.2 1036.8
15 14.01 СВ 3 10 км ясно -13.4 -16.3 79 -20 -20 1037.4 1037.0 -9.8
18 14.01 СВ 3 10 км ясно -15.9 -18.1 83 -23 -23 1037.8 1037.4
21 14.01 СВ 3 10 км ясно -17.3 -19.6 82 -24 -24 1037.9 1037.5
00 15.01 СВ 2 10 км ясно -18.3 -20.7 81 -24 -24 1038.0 1037.6
03 15.01 В 3 10 км 8/0
[Ac und]
-16.4 -18.1 87 -23 -23 1038.1 1037.7 -18.7 3
06 15.01 СВ 2 4000 м слабый снег [диам. изморози 14 мм] 10/0 300 м
[As op]
-13.6 -15.1 88 -18 -18 1039.0 1038.6
09 15.01 СВ 4 20 км {снег} 9/9 600 м
[Sc]
-11.0 -12.2 91 -18 -18 1038.8 1038.4
12 15.01 В 4 20 км {снег} 9/9 600 м
[Sc]
-9.3 -10.9 88 -16 -16 1038.6 1038.2
15 15.01 В 3 10 км 9/9 300 м
[Sc]
-10.7 -12.5 87 -17 -17 1038.8 1038.4 -9.1 0.4
18 15.01 В 3 10 км 9/9 300 м
[Sc]
-11.6 -12.8 91 -18 -18 1039.2 1038.8
21 15.01 В 1 10 км 9/9 300 м
[Sc]
-13.0 -14.4 89 -15 -15 1038.9 1038.5
00 16.01 В 1 10 км 8/8 600 м
[Sc]
-14.5 -16.1 88 -17 -17 1038.4 1038.0
03 16.01 С 2 10 км [диам. изморози 7 мм] ясно -21.3 -23.6 82 -27 -27 1037.3 1036.9 -21.3 3
06 16.01 В 2 20 км [диам. изморози 18 мм] ясно -17.6 -19.5 85 -23 -22 1036.9 1036.5
09 16.01 В 3 20 км 3/0
[Ci fib]
-12.4 -13.9 89 -18 -16 1035.5 1035.1
12 16.01 В 4 20 км 3/0
[Ci fib]
-9.3 -14.7 65 -16 -16 1033.6 1033.2
15 16.01 В 3 10 км 3/0
[Ci fib]
-14.3 -17.0 80 -21 -21 1032.6 1032.2 -9.3
18 16.01 В 2 10 км ясно -17.7 -19.7 84 -23 -23 1031.2 1030.8
21 16.01 В 3 10 км ясно -19.0 -21.1 83 -26 -26 1029.9 1029.5
00 17.01 В 2 10 км ясно -18.7 -20.6 85 -24 -24 1027.6 1027.2
03 17.01 В 2 10 км ясно -19.2 -21.3 83 -25 -25 1026.2 1025.8 -20.1 3
06 17.01 В 3 20 км ясно -18.0 -20.0 84 -25 -24 1025.3 1024.9
09 17.01 В 5 20 км ясно -11.7 -16.4 68 -20 -18 1024.2 1023.8
12 17.01 В 5 20 км ясно -8.0 -15.1 57 -15 -15 1022.0 1021.6
15 17.01 В 4 10 км ясно -12.8 -15.8 78 -20 -20 1021.9 1021.5 -8.0
18 17.01 В 4 10 км ясно -14.2 -16.9 80 -22 -22 1021.3 1020.9
21 17.01 В 4 10 км ясно -16.0 -18.1 84 -24 -24 1021.3 1020.9
00 18.01 В 4 10 км ясно -17.5 -19.7 83 -26 -26 1020.4 1020.0
03 18.01 В 4 10 км ясно -18.0 -20.3 82 -26 -26 1019.4 1019.0 -18.0 3
06 18.01 В 5 20 км 6/0
[Ac und Ci fib]
-18.0 -20.5 81 -28 -27 1019.8 1019.4 -18.8
09 18.01 В 6 20 км 4/0
[Ac trans Ci fib]
-10.7 -13.9 77 -19 -18 1018.0 1017.6
12 18.01 В 7
{11}
20 км 4/0
[Ac trans Ci fib]
-7.4 -10.1 81 -16 -16 1016.1 1015.7
15 18.01 СВ 5
{11}
10 км 3/0
[Ac trans]
-11.4 -14.1 80 -19 -19 1015.8 1015.4 -7.4
18 18.01 В 7-10
{11}
10 км 9/0
[Ac As]
-11.3 -13.2 86 -21 -21 1015.6 1015.2
21 18.01 СВ 8-12
{12}
10 км 9/0
[Ac As]
-11.7 -13.7 85 -22 -22 1015.2 1014.8
00 19.01 В 8-11
{13}
10 км 9/0
[Ac As]
-11.1 -12.9 87 -21 -21 1014.4 1014.0
03 19.01 В 7
{12}
10 км 9/0
[Ac As]
-11.6 -13.3 87 -21 -21 1014.6 1014.2 -11.9 3
06 19.01 В 7
{10}
20 км 6/0
[Ac trans Ci fib]
-11.6 -14.0 82 -21 -21 1016.1 1015.7 -12.4
09 19.01 В 8-10
{11}
20 км 8/0
[Ac trans Ci fib]
-8.3 -11.5 78 -18 -17 1016.3 1015.9
12 19.01 В 6 20 км 8/8 600 м
[Sc]
-5.3 -7.8 83 -13 -13 1016.7 1016.3
15 19.01 В 5 10 км 9/9 600 м
[Sc]
-5.7 -7.0 91 -13 -13 1017.9 1017.5 -5.3
18 19.01 В 5 10 км 9/9 300 м
[Sc]
-5.2 -5.7 96 -13 -13 1018.7 1018.3
21 19.01 В 2 10 км 9/9 300 м
[Sc]
-5.1 -5.5 97 -10 -10 1019.3 1018.9
00 20.01 В 2 500 м переохл. туман [диам. изморози 1 мм] ?/? -5.2 -5.2 100 -10 -10 1020.5 1020.1
03 20.01 ЮВ 2 500 м переохл. туман ?/? -4.6 -4.5 100 -9 -9 1021.4 1021.0 -5.7 3
06 20.01 ЮВ 2 2000 м дымка {туман} [диам. изморози 15 мм] 10/10 300 м
[St]
-4.8 -5.1 98 -9 -9 1022.8 1022.4
09 20.01 ЮВ 2 4000 м в посл. час переохл. осадки {морось} 10/10 300 м
[St]
-3.5 -3.7 99 -8 -8 1022.9 1022.5
12 20.01 Ю 2 4000 м дымка {морось} [диам. сложн. отлож. 17 мм] 10/10 300 м
[St]
-2.1 -2.3 99 -6 -6 1022.5 1022.1
15 20.01 В 1 4000 м дымка 10/10 300 м
[St]
-2.2 -2.5 98 -5 -5 1023.2 1022.8 -1.9 0.0
18 20.01 В 2 4000 м снежные зёрна [диам. сложн. отлож. 17 мм] 10/10 300 м
[St]
-2.6 -2.8 99 -7 -7 1022.8 1022.4
21 20.01 В 2 4000 м дымка {снег} 10/10 300 м
[St]
-3.2 -3.3 99 -8 -8 1022.1 1021.8

 

Местоположение метеостанции Юста (Калмыкия, Россия): широта 47.13 долгота 46.32 высота над уровнем моря 3 м.

В архиве по умолчанию представлена погода в Юсте за последнюю неделю. Архивные данные за месяц целиком и за предыдущие месяцы, начиная с января 2011 года, Вы можете получить, выбрав интересующий диапазон дат из раскрывающегося списка и нажав кнопку "Ввод!".

Внимание! Время в таблицах - всемирное. Для получения местного времени необходимо прибавить поправку, которая в Юсте равна 3 ч.

Смотрите также архив погоды в соседних городах и на ближайших метеорологических станциях:

Погода в Харабали (Астраханская область, Россия) (76 км)
Погода в Утте (Калмыкия, Россия) (88 км)
Погода в Черный Яр (Астраханская область, Россия) (106 км)
Погода в Досанге (Астраханская область, Россия) (124 км)
Погода в Верхнем Баскунчаке (Астраханская область, Россия) (125 км)
Погода в Яшкуле (Калмыкия, Россия) (129 км)
Погода в Кетченерах (Калмыкия, Россия) (134 км)
Погода в Малых Дербетах (Калмыкия, Россия) (151 км)
Погода в Астрахани (Астраханская область, Россия) (158 км)
Погода в Лимане (Астраханская область, Россия) (163 км)

Пояснения к столбцам:

Ветер - указаны скорость ветра в м/с - средняя за 10 мин, порывы в срок и между сроками (в фигурных скобках) и направление, откуда дует ветер: С - северный, СВ - северо-восточный, В - восточный, ЮВ - юго-восточный, Ю - южный, ЮЗ - юго-западный, З - западный, СЗ - северо-западный.
Видимость - горизонтальная дальность видимости в метрах или километрах. При видимости от 1 до 10 км при отсутствии осадков обычно наблюдается дымка, при ухудшении видимости до 1 км и менее - туман. В сухую погоду видимость может ухудшаться дымом, пылью или мглою.
Явления - указаны атмосферные явления, наблюдавшиеся в срок или в последний час перед сроком; фигурными скобками обозначены явления, наблюдавшиеся между сроками (за 1-3 часа до срока); квадратными скобками обозначены град или гололедные отложения с указанием их диаметра в мм.
Облачность - указаны через наклонную черту общая и нижняя облачность в баллах и высота нижней границы облаков в метрах; квадратными скобками обозначены формы облаков: Ci - перистые, Cs - перисто-слоистые, Cc - перисто-кучевые, Ac - высококучевые, As - высокослоистые, Sc - слоисто-кучевые, Ns - слоисто-дождевые, Cu - кучевые, Cb - кучево-дождевые. Подробнее классификацию облаков см. в Атласе облаков (PDF).
T - Температура воздуха - температура, измеренная на высоте 2 м над землей.
Td - Температура точки росы - температура, при понижении до которой содержащийся в воздухе водяной пар достигнет насыщения.
f - Относительная влажность воздуха - влажноcть воздуха, измеренная на высоте 2 м над землей.
Te - Эффективная температура - температура, которую ощущает одетый по сезону человек в тени. Характеристика душности погоды. При расчете учитывается влияние влажности воздуха и скорости ветра на теплоощущения человека.
Tes - Эффективная температура на солнце - температура, которую ощущает человек, с поправкой на солнечный нагрев. Характеристика знойности погоды. Зависит от высоты солнца над горизонтом, облачности и скорости ветра. Ночью, в пасмурную погоду, а также при ветре 12 м/с и более поправка равна нулю.
P - Атмосферное давление - приведенное к уровню моря атмосферное давление.
Po - Атмосферное давление - измеренное на уровне метеостанции атмосферное давление.
Tmin - Минимальная температура - минимум температуры воздуха на высоте 2 м над землей.
Tmax - Максимальная температура - максимум температуры воздуха на высоте 2 м над землей.
R - Количество осадков - Количество выпавших осадков за период времени, мм. При наведении курсора мыши на число - период времени, за который выпало указанное количество осадков.
R24 - Количество осадков - Количество выпавших осадков за 24 часа, мм.
S - Снежный покров - Высота снежного покрова, см. При наведении курсора мыши на число - состояние снежного покрова и степень покрытия местности в баллах.